Regional Weather Roundup
Issued by NWS Green Bay, WI

Home | Current Version | Previous Version | Graphics & Text | Print | Product List | Glossary Off
Versions: 1 2 3 4 5 6 7 8 9 10 11 12 13 14 15 16 17 18 19 20 21 22 23 24 25 26 27 28 29 30 31 32 33 34 35 36 37 38 39 40 41 42 43 44 45 46 47 48 49 50

000
ASUS43 KGRB 221859
RWRGRB

NORTH-CENTRAL AND NORTHEAST WISCONSIN REGIONAL WEATHER ROUNDUP
NATIONAL WEATHER SERVICE GREEN BAY WI
100 PM CST MON DEC 22 2014

WIZ005-009-010>012-018-019-222000-
NORTH CENTRAL WISCONSIN

CITY           SKY/WX    TMP DP  RH WIND       PRES   REMARKS
IRONWOOD       CLOUDY    36  32  87 SE8       29.70S
MANITOWISH WTR NOT AVBL
ARBOR VITAE    NOT AVBL
EAGLE RIVER    NOT AVBL
LAND O LAKES   NOT AVBL
RHINELANDER    CLOUDY    32  31  96 SE9       29.76F FOG
PHILLIPS       NOT AVBL
ANTIGO         NOT AVBL
TOMAHAWK       NOT AVBL
MERRILL        NOT AVBL
$$

WIZ013-073-222000-
NORTHEAST WISCONSIN

CITY           SKY/WX    TMP DP  RH WIND       PRES   REMARKS
IRON MOUNTAIN  CLOUDY    34  32  92 SE7       29.81F FOG
MARINETTE      PTSUNNY   36  30  80 S14       29.84F
$$

WIZ017-030-035>037-045-222000-
CENTRAL WISCONSIN

CITY           SKY/WX    TMP DP  RH WIND       PRES   REMARKS
MEDFORD        NOT AVBL
WAUSAU         CLOUDY    35  32  88 SE8       29.74F FOG
MOSINEE        CLOUDY    34  34 100 E9        29.75F FOG
MARSHFIELD     CLOUDY    36  32  85 SE12      29.72F FOG
WISC RAPIDS    CLOUDY    37  30  75 SE9       29.75F
STEVENS POINT  NOT AVBL
WAUPACA        NOT AVBL
SHAWANO        NOT AVBL
CLINTONVILLE   NOT AVBL
$$

WIZ038-039-048-051-222000-
FOX VALLEY

CITY           SKY/WX    TMP DP  RH WIND       PRES   REMARKS
NWS GREEN BAY  CLOUDY    36  32  85 MISG      29.82F FOG
APPLETON       CLOUDY    36  34  93 SE12      29.81F FOG
OSHKOSH        CLOUDY    37  32  82 SE10      29.79F HAZE
FOND DU LAC    CLOUDY    38  31  76 SE14      29.78F
$$

WIZ022-050-052-222000-
EAST CENTRAL WISCONSIN

CITY           SKY/WX    TMP DP  RH WIND       PRES   REMARKS
STURGEON BAY   CLOUDY    34  28  80 SE15      29.87F
MANITOWOC      NOT AVBL
SHEBOYGAN      CLOUDY    36  32  85 SE9       29.82F FOG
$$

LMZ563-521-522-541>543-222000-
LAKESHORE

STATION/POSITION TIME  TEMP    WIND        PRES    VSBY  WAVE
                       AIR SEA DIR/SP/G                  HT/PER
                 (UTC) (F)     (DEG/KT/KT) (MB)    (MI)  (FT/S)
SHEBOYGAN LKSHOR 1800   36 37  130/ 18/ 19 1011.7F
KEWAUNEE LKSHORE 1800   35     150/ 10/ 15 1010.6F
ALGOMA MARINA    1800          180/ 16/ 20   N/A
NORTHPORT PIER   1800   35     150/ 14/ 18 1012.2F
SISTER BAY LKSHO 1800          190/ 13/ 18   N/A
CHAMBERS ISLAND  1800   36     130/  8/ 15 1012.2F
MENOMINEE LKSHOR 1800   34     130/ 15/ 18 1011.7F
$$



USA.gov is the U.S. government's official web portal to all federal, state and local government web resources and services.